K4DFD-13 Weather Reports


Display with metric or nautical units.
time (UTC)temp
F
wind
direction
speed
MPH
gust
MPH
rain 1hr
in
rain 24hr
in
rain mn
in
humidity
%
barometer
mb
20260504081843 43 0 0.0 0.0 0.00 0.00 0.00 71 1016.5
20260504081343 43 0 0.0 0.0 0.00 0.00 0.00 71 1016.6
20260504080902 43 0 0.0 0.0 0.00 0.00 0.00 71 1016.6
20260504080402 43 0 0.0 0.0 0.00 0.00 0.00 72 1016.5
20260504070343 44 0 0.0 0.0 0.00 0.00 0.00 67 1016.9
20260504050329 50 263 2.0 3.0 0.00 0.00 0.00 53 1017.0
20260504045829 50 270 2.0 3.0 0.00 0.00 0.00 53 1017.0
20260504045333 50 263 3.0 4.0 0.00 0.00 0.00 53 1016.9
20260504044831 49 252 1.0 2.0 0.00 0.00 0.00 53 1016.9
20260504044326 49 308 1.0 2.0 0.00 0.00 0.00 53 1016.9
20260504043826 49 198 0.0 2.0 0.00 0.00 0.00 53 1016.8
20260504043326 49 244 2.0 2.0 0.00 0.00 0.00 53 1016.8
20260504042826 49 286 0.0 2.0 0.00 0.00 0.00 53 1016.8
20260504042325 49 234 2.0 3.0 0.00 0.00 0.00 53 1016.7
20260504041825 49 241 1.0 2.0 0.00 0.00 0.00 53 1016.7
20260504041332 50 273 1.0 3.0 0.00 0.00 0.00 52 1016.7
20260504040824 50 268 1.0 2.0 0.00 0.00 0.00 52 1016.6
20260504040324 50 219 1.0 3.0 0.00 0.00 0.00 52 1016.6
20260504035824 50 243 1.0 3.0 0.00 0.00 0.00 52 1016.6
20260504035323 50 227 1.0 2.0 0.00 0.00 0.00 51 1016.6
20260504034823 50 205 2.0 2.0 0.00 0.00 0.00 52 1016.7
20260504034330 50 221 1.0 2.0 0.00 0.00 0.00 51 1016.8
20260504033822 50 206 2.0 3.0 0.00 0.00 0.00 51 1016.9
20260504033342 50 222 0.0 1.0 0.00 0.00 0.00 50 1016.9
20260504032841 50 230 2.0 2.0 0.00 0.00 0.00 50 1017.0
20260504032321 50 258 1.0 2.0 0.00 0.00 0.00 51 1016.9
20260504031821 50 220 1.0 2.0 0.00 0.00 0.00 50 1016.8
20260504031320 50 209 2.0 3.0 0.00 0.00 0.00 50 1016.8
20260504030820 50 237 2.0 3.0 0.00 0.00 0.00 51 1016.8
20260504030321 50 196 2.0 2.0 0.00 0.00 0.00 49 1016.7
20260504025819 50 233 0.0 1.0 0.00 0.00 0.00 50 1016.9
20260504025319 49 275 1.0 2.0 0.00 0.00 0.00 51 1017.0
20260504024838 50 307 0.0 1.0 0.00 0.00 0.00 51 1017.0
20260504024318 50 201 2.0 2.0 0.00 0.00 0.00 51 1016.9
20260504023818 50 199 2.0 2.0 0.00 0.00 0.00 50 1016.9
20260504023337 50 195 1.0 2.0 0.00 0.00 0.00 50 1017.0
20260504022816 50 194 1.0 2.0 0.00 0.00 0.00 49 1016.9
20260504022316 50 250 1.0 2.0 0.00 0.00 0.00 49 1017.0
20260504021816 51 270 1.0 2.0 0.00 0.00 0.00 49 1017.0
20260504021315 51 241 2.0 3.0 0.00 0.00 0.00 49 1017.0
20260504020815 51 253 1.0 3.0 0.00 0.00 0.00 48 1017.0
20260504020314 51 248 3.0 4.0 0.00 0.00 0.00 48 1017.0
20260504015814 52 251 3.0 5.0 0.00 0.00 0.00 47 1016.9
20260504015612 52 230 2.0 3.0 0.00 0.00 0.00 47 1016.8
20260504015115 52 239 0.0 2.0 0.00 0.00 0.00 47 1016.8
20260504014612 52 256 2.0 2.0 0.00 0.00 0.00 47 1016.6
20260504014112 53 207 3.0 4.0 0.00 0.00 0.00 46 1016.4
20260504013610 53 215 2.0 4.0 0.00 0.00 0.00 46 1016.2
20260504013110 53 238 3.0 6.0 0.00 0.00 0.00 46 1016.4
20260504012610 53 245 3.0 5.0 0.00 0.00 0.00 46 1016.5
20260504012109 53 247 2.0 5.0 0.00 0.00 0.00 45 1016.6
20260504011609 53 248 3.0 4.0 0.00 0.00 0.00 45 1016.5
20260504011108 53 253 4.0 9.0 0.00 0.00 0.00 45 1016.4
20260504010608 53 252 3.0 7.0 0.00 0.00 0.00 45 1016.4
20260504010128 54 239 2.0 4.0 0.00 0.00 0.00 44 1016.3
20260504005607 54 242 3.0 4.0 0.00 0.00 0.00 44 1016.2
20260504005107 54 228 2.0 4.0 0.00 0.00 0.00 43 1016.1
20260504004608 54 236 2.0 3.0 0.00 0.00 0.00 43 1016.2
20260504004107 55 233 3.0 6.0 0.00 0.00 0.00 42 1016.1
20260504003606 55 250 3.0 4.0 0.00 0.00 0.00 42 1016.0
20260504003113 55 223 4.0 6.0 0.00 0.00 0.00 41 1015.8
20260504002605 56 221 4.0 6.0 0.00 0.00 0.00 40 1015.8
20260504002105 56 227 3.0 6.0 0.00 0.00 0.00 40 1016.0
20260504001608 56 237 5.0 8.0 0.00 0.00 0.00 40 1016.0
20260504001121 56 232 4.0 6.0 0.00 0.00 0.00 40 1015.8
20260504000604 57 208 3.0 4.0 0.00 0.00 0.00 40 1015.6
20260504000103 57 231 4.0 6.0 0.00 0.00 0.00 39 1015.7
20260503235603 57 226 4.0 7.0 0.00 0.00 0.00 39 1015.8
20260503235103 58 233 3.0 5.0 0.00 0.00 0.00 39 1015.8
20260503234602 58 235 4.0 7.0 0.00 0.00 0.00 38 1015.8
20260503234122 58 257 2.0 5.0 0.00 0.00 0.00 38 1015.8
20260503233601 58 233 6.0 11.0 0.00 0.00 0.00 37 1015.7
20260503233101 59 234 4.0 8.0 0.00 0.00 0.00 37 1015.7
20260503232608 60 244 2.0 5.0 0.00 0.00 0.00 36 1015.7
20260503232100 60 217 3.0 5.0 0.00 0.00 0.00 36 1015.7
20260503231559 60 222 4.0 6.0 0.00 0.00 0.00 35 1015.6
20260503231103 60 231 5.0 8.0 0.00 0.00 0.00 35 1015.5
20260503230558 61 207 7.0 9.0 0.00 0.00 0.00 35 1015.5
20260503230058 61 256 5.0 8.0 0.00 0.00 0.00 35 1015.5
20260503225558 61 224 5.0 7.0 0.00 0.00 0.00 34 1015.4
20260503225057 61 238 5.0 10.0 0.00 0.00 0.00 33 1015.4
20260503224557 62 251 7.0 11.0 0.00 0.00 0.00 31 1015.4
20260503224056 62 263 4.0 7.0 0.00 0.00 0.00 30 1015.4
20260503223556 62 256 4.0 8.0 0.00 0.00 0.00 31 1015.5
20260503223056 62 320 4.0 6.0 0.00 0.00 0.00 30 1015.4
20260503222556 62 280 5.0 7.0 0.00 0.00 0.00 30 1015.4
20260503222055 62 290 5.0 7.0 0.00 0.00 0.00 30 1015.4
20260503221600 62 255 4.0 6.0 0.00 0.00 0.00 30 1015.5
20260503221054 62 249 2.0 5.0 0.00 0.00 0.00 31 1015.5
20260503220554 62 314 3.0 5.0 0.00 0.00 0.00 30 1015.5
20260503220105 62 31 1.0 3.0 0.00 0.00 0.00 32 1015.6
20260503215553 62 250 7.0 11.0 0.00 0.00 0.00 30 1015.5
20260503215053 62 291 2.0 4.0 0.00 0.00 0.00 30 1015.6
20260503214613 61 229 3.0 4.0 0.00 0.00 0.00 31 1015.6
20260503214052 61 304 4.0 6.0 0.00 0.00 0.00 28 1015.7
20260503213612 61 322 4.0 6.0 0.00 0.00 0.00 29 1015.7
20260503213058 62 296 6.0 9.0 0.00 0.00 0.00 29 1015.7
20260503212551 62 249 4.0 7.0 0.00 0.00 0.00 30 1015.7
20260503212057 61 245 2.0 6.0 0.00 0.00 0.00 29 1015.7
20260503211557 61 309 3.0 7.0 0.00 0.00 0.00 30 1015.8
20260503211049 60 294 4.0 7.0 0.00 0.00 0.00 31 1015.8
20260503210549 61 278 5.0 8.0 0.00 0.00 0.00 31 1016.0
20260503210108 61 269 3.0 6.0 0.00 0.00 0.00 31 1016.0
20260503205548 61 273 6.0 11.0 0.00 0.00 0.00 30 1015.8
20260503205047 61 248 5.0 9.0 0.00 0.00 0.00 31 1016.0
20260503204547 61 273 5.0 10.0 0.00 0.00 0.00 31 1015.8
20260503204106 61 319 4.0 8.0 0.00 0.00 0.00 31 1016.1
20260503203606 61 233 2.0 2.0 0.00 0.00 0.00 31 1016.1
20260503203045 61 246 5.0 8.0 0.00 0.00 0.00 31 1016.1
20260503202605 60 339 2.0 4.0 0.00 0.00 0.00 32 1016.3
20260503202105 60 296 5.0 10.0 0.00 0.00 0.00 31 1016.4
20260503201604 60 305 2.0 5.0 0.00 0.00 0.00 32 1016.3
20260503201044 60 194 1.0 3.0 0.00 0.00 0.00 32 1016.5
20260503200543 60 262 3.0 6.0 0.00 0.00 0.00 32 1016.6
20260503195603 60 277 5.0 10.0 0.00 0.00 0.00 31 1016.7
20260503195042 60 226 7.0 9.0 0.00 0.00 0.00 32 1016.7
20260503194602 60 299 2.0 4.0 0.00 0.00 0.00 33 1016.7
20260503194101 61 261 5.0 11.0 0.00 0.00 0.00 31 1016.7
20260503193601 60 14 3.0 5.0 0.00 0.00 0.00 35 1016.8
20260503193040 59 201 2.0 5.0 0.00 0.00 0.00 35 1016.9
20260503192540 59 268 4.0 8.0 0.00 0.00 0.00 33 1017.1
20260503192100 59 298 6.0 9.0 0.00 0.00 0.00 34 1017.2
20260503191546 59 252 5.0 8.0 0.00 0.00 0.00 34 1017.2
20260503191059 58 300 2.0 4.0 0.00 0.00 0.00 36 1017.2
20260503190539 58 314 3.0 6.0 0.00 0.00 0.00 36 1017.2
20260503190058 59 235 7.0 9.0 0.00 0.00 0.00 33 1017.3
20260503185558 59 254 3.0 6.0 0.00 0.00 0.00 35 1017.3
20260503185057 58 284 3.0 8.0 0.00 0.00 0.00 35 1017.3
20260503184543 58 359 3.0 6.0 0.00 0.00 0.00 36 1017.3
20260503184036 57 276 4.0 8.0 0.00 0.00 0.00 34 1017.5
20260503183535 57 298 5.0 7.0 0.00 0.00 0.00 32 1017.7
20260503183035 57 259 5.0 7.0 0.00 0.00 0.00 34 1017.7
20260503182535 57 281 6.0 9.0 0.00 0.00 0.00 33 1017.7
20260503182034 56 32 2.0 3.0 0.00 0.00 0.00 36 1017.8
20260503181537 56 240 5.0 9.0 0.00 0.00 0.00 34 1017.9
20260503181033 56 290 5.0 7.0 0.00 0.00 0.00 35 1018.1
20260503180533 56 269 5.0 8.0 0.00 0.00 0.00 35 1018.1
20260503180033 56 316 6.0 8.0 0.00 0.00 0.00 35 1018.1
20260503175532 56 217 3.0 6.0 0.00 0.00 0.00 35 1018.1
20260503175032 56 252 5.0 9.0 0.00 0.00 0.00 37 1018.3
20260503174532 56 346 1.0 2.0 0.00 0.00 0.00 38 1018.1
20260503174031 55 219 4.0 6.0 0.00 0.00 0.00 37 1018.2
20260503173551 54 273 5.0 7.0 0.00 0.00 0.00 39 1018.3
20260503173031 54 242 5.0 9.0 0.00 0.00 0.00 37 1018.2
20260503172530 54 301 8.0 11.0 0.00 0.00 0.00 37 1018.4
20260503172030 53 12 2.0 5.0 0.00 0.00 0.00 42 1018.4
20260503171530 53 73 2.0 4.0 0.00 0.00 0.00 40 1018.5
20260503171029 53 213 3.0 5.0 0.00 0.00 0.00 37 1018.6
20260503170529 54 57 2.0 3.0 0.00 0.00 0.00 37 1018.6
20260503150520 49 47 3.0 5.0 0.00 0.00 0.00 46 1019.4
20260503131012 44 326 3.0 6.0 0.00 0.00 0.00 51 1019.2
20260503130511 44 306 5.0 8.0 0.00 0.00 0.00 52 1019.2
20260503110501 37 35 2.0 2.0 0.00 0.00 0.00 69 1018.5
20260503090452 35 220 2.0 2.0 0.00 0.00 0.00 76 1017.2